Regional Weather Roundup
Issued by NWS

Home | Current Version | Previous Version | Graphics & Text | Print | Product List | Glossary On
Versions: 1 2 3 4 5 6 7 8 9 10 11 12 13 14 15 16 17 18 19 20 21 22 23 24 25 26 27 28 29 30 31 32 33 34 35 36 37 38 39 40 41 42
000
ASUS43 KDMX 252107
RWRIA

WEATHER ROUNDUP FOR IOWA
NATIONAL WEATHER SERVICE DES MOINES IA
300 PM CST THU DEC 25 2014

NOTE: "FAIR" INDICATES FEW OR NO CLOUDS BELOW 12,000 FEET WITH NO
SIGNIFICANT WEATHER AND/OR OBSTRUCTIONS TO VISIBILITY.

* - THESE STATIONS ARE NOT NWS STATIONS...THUS NOT UNDER NWS
QUALITY CONTROL.  THEY ALSO DO NOT REPORT WEATHER SUCH
AS PRECIPITATION OR FOG.

IAZ001>003-012>014-020>022-031>034-043>046-252200-
   NORTHWEST IOWA

CITY           SKY/WX    TMP DP  RH WIND       PRES   REMARKS
CARROLL *      SUNNY     45  36  70 SE8       29.65S
CHEROKEE *     MOSUNNY   39  32  75 E7        29.64F WCI  34
DENISON *      SUNNY     46  34  61 SE10G16   29.61R
LE MARS *      SUNNY     37  32  81 E7G13     29.63R WCI  32
ORANGE CITY *  SUNNY     39  30  70 E8        29.63R WCI  34
SHELDON *      SUNNY     37  32  81 E10       29.64R WCI  30
SIOUX CITY     SUNNY     43  31  62 SE9       29.62R
SPENCER        CLOUDY    39  29  67 E10       29.66S WCI  32
STORM LAKE *   SUNNY     37  32  81 SE17      29.64F WCI  28
$$

IAZ055>058-069>071-079>083-090>094-252200-
   SOUTHWEST IOWA

CITY           SKY/WX    TMP DP  RH WIND       PRES   REMARKS
ATLANTIC *     SUNNY     50  34  53 S15G22    29.63R
AUDUBON *      SUNNY     46  34  61 S10G16    29.64R
CLARINDA *     SUNNY     52  32  46 S20G29    29.64R
COUNCIL BLFS * SUNNY     48  34  57 S14G21    29.59S
CRESTON *      SUNNY     48  32  53 S16G26    29.64F
HARLAN  *      SUNNY     46  37  71 S15G21    29.65R
LAMONI         SUNNY     49  31  49 S15G22    29.68F
RED OAK *      SUNNY     50  34  53 S16G23    29.62R
SHENANDOAH *   SUNNY     52  34  50 S25G32    29.62S
$$

IAZ047>049-059>061-072>074-084-252200-
   CENTRAL IOWA

CITY           SKY/WX    TMP DP  RH WIND       PRES   REMARKS
AMES           MOSUNNY   47  33  58 SE12      29.70F
ANKENY *       SUNNY     48  32  53 SE15      29.71R
CHARITON *     SUNNY     50  32  50 S20G26    29.72S
DES MOINES     MOSUNNY   50  32  50 S16       29.71F
GRINNELL*      MOSUNNY   48  32  53 S15G22    29.75F
KNOXVILLE *    SUNNY     50  30  46 S15G24    29.72S
MARSHALLTOWN   MOSUNNY   47  33  58 S17       29.73F
PELLA *        SUNNY     50  32  50 S16       29.76S
PERRY *          N/A     48  36  61 SE10      29.67F
$$

IAZ004>006-015-016-023>025-035-036-252200-
   NORTH CENTRAL IOWA

CITY           SKY/WX    TMP DP  RH WIND       PRES   REMARKS
ALGONA *       SUNNY     36  32  87 SE6       29.71R WCI  31
CLARION *      SUNNY     36  34  93 SE12      29.70F WCI  27
ESTHERVILLE    MOSUNNY   35  30  82 SE10      29.68  WCI  27
FORT DODGE *   PTSUNNY   41  30  65 S7        29.70S
MASON CITY     CLOUDY    37  31  78 S7        29.75R WCI  32
FOREST CITY *  SUNNY     36  30  80 SE7       29.73R WCI  30
IOWA FALLS *     N/A     45  34  65 S10       29.73F
$$

IAZ007>011-017>019-026>030-037>042-050>054-066-252200-
   NORTHEAST IOWA

CITY           SKY/WX    TMP DP  RH WIND       PRES   REMARKS
CEDAR RAPIDS   MOSUNNY   47  33  58 S13       29.80S
CHARLES CITY * SUNNY     41  34  75 S12       29.76R
CLINTON *      CLOUDY    46  32  57 S12       29.89F
DECORAH *      SUNNY     41  32  70 S7        29.77R
DUBUQUE        CLOUDY    44  32  62 S16       29.82F
MONTICELLO *   SUNNY     45  34  65 S13       29.83R
OELWEIN *      SUNNY     43  34  70 S16       29.78S
WATERLOO       LGT RAIN  45  33  63 S8        29.76S
$$

IAZ064-065-067-068-078-252200-
   EAST CENTRAL IOWA

CITY           SKY/WX    TMP DP  RH WIND       PRES   REMARKS
DAVENPORT      PTSUNNY   47  30  51 S14       29.86F
IOWA CITY      MOSUNNY   48  32  53 S15G21    29.84S
MT. PLEASANT * SUNNY     46  34  61 SE13      29.85S
MUSCATINE *    SUNNY     50  32  50 S18       29.86R
QUAD CITIES    PTSUNNY   49  30  48 S13       29.86S
$$

IAZ062-063-075>077-085>089-095>099-252200-
   SOUTHEAST IOWA

CITY           SKY/WX    TMP DP  RH WIND       PRES   REMARKS
BURLINGTON     SUNNY     48  34  58 S13       29.87R
FAIRFIELD *    MOSUNNY   48  32  53 S16       29.81S
FORT MADISON * SUNNY     48  34  57 S12G21    29.87S
KEOKUK *       SUNNY     48  32  53 S9        29.86S
OSKALOOSA *      N/A     48  34  57 S17       29.78S
CENTERVILLE *  SUNNY     48  30  49 S20G26    29.77F
OTTUMWA        SUNNY     46  31  55 S9        29.78S
WASHINGTON *   SUNNY     48  34  57 S15G23    29.82S
$$

ABBREVIATIONS USED IN REMARKS
   TC - TEMPERATURES IN CELSIUS
  WCI - WIND CHILL INDEX
   HX - HEAT INDEX
  VSB - VISIBILITY
$$




USA.gov is the U.S. government's official web portal to all federal, state and local government web resources and services.